TimeEST,TemperatureF,Dew PointF,Humidity,Sea Level PressureIn,VisibilityMPH,Wind Direction,Wind SpeedMPH,Gust SpeedMPH,PrecipitationIn,Events,Conditions,WindDirDegrees,DateUTC
12:53 AM,54.0,42.1,64,29.42,10.0,SSW,18.4,23.0,0.00,Rain,Light Rain,210,2014-01-06 05:53:00
1:53 AM,52.0,44.1,74,29.42,10.0,SW,19.6,25.3,0.02,Rain,Light Rain,220,2014-01-06 06:53:00
2:13 AM,44.6,39.2,81,29.50,7.0,West,21.9,33.4,0.03,Rain,Light Rain,270,2014-01-06 07:13:00
2:50 AM,42.8,35.6,76,29.55,10.0,West,16.1,31.1,0.05,Rain,Light Rain,260,2014-01-06 07:50:00
2:53 AM,42.1,36.0,79,29.55,9.0,WSW,17.3,25.3,0.05,Rain,Rain,250,2014-01-06 07:53:00
3:18 AM,41.0,35.6,81,29.57,10.0,WSW,15.0,36.8,0.00,Rain,Light Rain,240,2014-01-06 08:18:00
3:39 AM,39.2,33.8,81,29.60,10.0,WSW,20.7,28.8,0.01,Rain,Light Rain,250,2014-01-06 08:39:00
3:53 AM,37.0,32.0,82,29.64,9.0,WSW,18.4,33.4,0.02,Rain,Light Rain,250,2014-01-06 08:53:00
4:03 AM,35.6,30.2,81,29.64,5.0,WSW,23.0,31.1,0.01,Snow,Light Snow,250,2014-01-06 09:03:00
4:06 AM,33.8,30.2,87,29.64,2.5,West,21.9,33.4,0.01,Snow,Light Snow,260,2014-01-06 09:06:00
4:10 AM,33.8,28.4,81,29.65,1.2,West,18.4,34.5,0.01,Snow,Light Snow,260,2014-01-06 09:10:00
4:15 AM,32.0,28.4,87,29.66,0.8,West,24.2,34.5,0.01,Snow,Light Snow,260,2014-01-06 09:15:00
4:30 AM,30.2,28.4,93,29.66,0.8,West,17.3,29.9,0.01,Snow,Light Snow,270,2014-01-06 09:30:00
4:33 AM,30.2,28.4,93,29.67,1.0,West,16.1,26.5,0.01,Snow,Light Snow,260,2014-01-06 09:33:00
4:43 AM,30.2,26.6,86,29.70,1.2,West,18.4,31.1,0.02,Snow,Light Snow,260,2014-01-06 09:43:00
4:53 AM,30.9,27.0,85,29.69,2.0,WSW,17.3,25.3,0.02,Snow,Light Snow,250,2014-01-06 09:53:00
5:01 AM,30.2,26.6,86,29.69,1.5,West,15.0,27.6,0.00,Snow,Light Snow,260,2014-01-06 10:01:00
5:16 AM,28.4,24.8,86,29.73,0.8,WSW,19.6,32.2,0.00,Snow,Light Snow,250,2014-01-06 10:16:00
5:21 AM,28.4,24.8,86,29.72,1.0,West,16.1,29.9,0.00,Snow,Light Snow,270,2014-01-06 10:21:00
5:31 AM,28.4,24.8,86,29.72,1.5,West,17.3,29.9,0.00,Snow,Light Snow,280,2014-01-06 10:31:00
5:53 AM,28.0,24.1,85,29.75,1.5,West,17.3,25.3,0.00,Snow,Light Snow,270,2014-01-06 10:53:00
5:59 AM,28.4,23.0,80,29.74,3.0,West,20.7,33.4,0.00,Snow,Light Snow,280,2014-01-06 10:59:00
6:29 AM,26.6,21.2,80,29.77,9.0,West,18.4,29.9,0.00,,Overcast,260,2014-01-06 11:29:00
6:49 AM,26.6,21.2,80,29.78,7.0,West,12.7,21.9,0.00,Snow,Light Snow,270,2014-01-06 11:49:00
6:53 AM,26.1,21.0,81,29.78,6.0,West,15.0,21.9,0.00,Snow,Light Snow,270,2014-01-06 11:53:00
7:53 AM,24.1,19.0,81,29.82,2.5,West,13.8,21.9,0.00,Snow,Light Snow,270,2014-01-06 12:53:00
7:59 AM,24.8,19.4,80,29.81,3.0,West,12.7,23.0,0.00,Snow,Light Snow,260,2014-01-06 12:59:00
8:06 AM,24.8,19.4,80,29.82,3.0,West,11.5,20.7,0.00,Snow,Light Snow,280,2014-01-06 13:06:00
8:26 AM,24.8,17.6,74,29.82,1.5,West,13.8,19.6,0.00,Snow,Light Snow,260,2014-01-06 13:26:00
8:41 AM,24.8,17.6,74,29.83,1.5,West,16.1,21.9,0.00,Snow,Light Snow,270,2014-01-06 13:41:00
8:53 AM,23.0,18.0,81,29.85,1.5,WSW,12.7,-,0.00,Snow,Light Snow,250,2014-01-06 13:53:00
9:02 AM,23.0,17.6,80,29.84,1.0,West,12.7,21.9,0.00,Snow,Light Snow,270,2014-01-06 14:02:00
9:35 AM,23.0,17.6,80,29.85,2.5,WSW,9.2,-,0.00,Snow,Light Snow,250,2014-01-06 14:35:00
9:53 AM,23.0,18.0,81,29.86,1.5,WSW,10.4,-,0.00,Snow,Light Snow,250,2014-01-06 14:53:00
10:10 AM,23.0,17.6,80,29.85,0.8,WSW,16.1,21.9,0.00,Snow,Light Snow,250,2014-01-06 15:10:00
10:14 AM,23.0,17.6,80,29.85,0.8,West,12.7,21.9,0.00,Snow,Light Snow,280,2014-01-06 15:14:00
10:27 AM,21.2,14.0,74,29.85,2.5,WNW,18.4,25.3,0.00,Snow,Light Snow,290,2014-01-06 15:27:00
10:34 AM,21.2,14.0,74,29.85,3.0,West,16.1,25.3,0.00,Snow,Light Snow,280,2014-01-06 15:34:00
10:41 AM,21.2,12.2,68,29.86,4.0,West,16.1,25.3,0.00,Snow,Light Snow,260,2014-01-06 15:41:00
10:51 AM,21.2,12.2,68,29.86,5.0,West,10.4,21.9,0.00,Snow,Light Snow,270,2014-01-06 15:51:00
10:53 AM,21.0,12.9,71,29.87,5.0,West,15.0,21.9,0.00,Snow,Light Snow,280,2014-01-06 15:53:00
11:53 AM,18.0,10.0,71,29.88,5.0,West,16.1,23.0,0.00,Snow,Light Snow,270,2014-01-06 16:53:00
12:53 PM,15.1,6.1,68,29.89,2.5,West,17.3,25.3,0.00,Snow,Light Snow,270,2014-01-06 17:53:00
1:02 PM,14.0,6.8,73,29.88,3.0,West,18.4,27.6,0.00,Snow,Light Snow,260,2014-01-06 18:02:00
1:10 PM,14.0,6.8,73,29.88,1.8,West,17.3,25.3,0.00,Snow,Light Snow,270,2014-01-06 18:10:00
1:21 PM,12.2,6.8,79,29.88,1.5,West,11.5,21.9,0.00,Snow,Light Snow,280,2014-01-06 18:21:00
1:31 PM,12.2,6.8,79,29.88,1.0,WNW,15.0,23.0,0.00,Snow,Light Snow,290,2014-01-06 18:31:00
1:40 PM,12.2,6.8,79,29.89,0.8,WNW,13.8,23.0,0.00,Snow,Light Snow,290,2014-01-06 18:40:00
1:50 PM,12.2,5.0,73,29.89,1.5,WSW,11.5,18.4,0.00,Snow,Light Snow,250,2014-01-06 18:50:00
1:53 PM,12.0,5.0,73,29.91,1.2,WSW,13.8,-,0.00,Snow,Light Snow,250,2014-01-06 18:53:00
2:01 PM,10.4,5.0,79,29.89,1.0,West,15.0,21.9,0.00,Snow,Light Snow,270,2014-01-06 19:01:00
2:24 PM,10.4,1.4,67,29.90,1.0,West,21.9,35.7,0.00,Snow,Light Snow,260,2014-01-06 19:24:00
2:31 PM,10.4,-0.4,62,29.92,1.0,WSW,23.0,35.7,0.00,Snow,Blowing Snow,250,2014-01-06 19:31:00
2:53 PM,10.0,-2.0,58,29.96,1.0,WSW,19.6,33.4,0.00,Snow,Blowing Snow,250,2014-01-06 19:53:00
3:00 PM,10.4,-2.2,57,29.94,2.5,WSW,17.3,32.2,N/A,Snow,Blowing Snow,250,2014-01-06 20:00:00
3:09 PM,10.4,-2.2,57,29.96,4.0,WSW,20.7,32.2,N/A,Snow,Blowing Snow,250,2014-01-06 20:09:00
3:18 PM,10.4,-2.2,57,29.96,2.0,WSW,21.9,35.7,N/A,Snow,Blowing Snow,250,2014-01-06 20:18:00
3:28 PM,10.4,-5.8,48,29.96,8.0,West,16.1,25.3,N/A,,Overcast,270,2014-01-06 20:28:00
3:41 PM,8.6,-0.4,67,29.98,1.5,WNW,17.3,26.5,0.00,Snow,Light Snow,290,2014-01-06 20:41:00
3:53 PM,7.0,-2.0,67,30.03,3.0,West,18.4,26.5,0.00,Snow,Light Snow,270,2014-01-06 20:53:00
4:35 PM,6.8,-9.4,48,30.02,10.0,West,18.4,29.9,0.00,,Mostly Cloudy,270,2014-01-06 21:35:00
4:53 PM,5.0,-6.0,61,30.07,9.0,West,17.3,25.3,0.00,,Overcast,280,2014-01-06 21:53:00
5:02 PM,3.2,-7.6,61,30.03,8.0,WNW,17.3,24.2,0.00,Snow,Light Snow,290,2014-01-06 22:02:00
5:10 PM,3.2,-7.6,61,30.04,9.0,WNW,17.3,25.3,0.00,,Overcast,290,2014-01-06 22:10:00
5:53 PM,1.9,-8.0,63,30.12,8.0,West,11.5,21.9,0.00,Snow,Light Snow,280,2014-01-06 22:53:00
6:39 PM,1.4,-9.4,61,30.09,10.0,West,12.7,21.9,0.00,,Overcast,270,2014-01-06 23:39:00
6:51 PM,1.4,-9.4,61,30.10,7.0,West,19.6,27.6,0.00,,Mostly Cloudy,260,2014-01-06 23:51:00
6:53 PM,1.0,-9.9,60,30.15,9.0,West,16.1,27.6,0.00,,Mostly Cloudy,270,2014-01-06 23:53:00
7:07 PM,1.4,-11.2,56,30.11,9.0,West,15.0,31.1,N/A,,Scattered Clouds,260,2014-01-07 00:07:00
7:53 PM,-0.0,-15.0,49,30.18,10.0,West,16.1,26.5,N/A,,Overcast,270,2014-01-07 00:53:00
8:53 PM,-0.9,-9.9,66,30.20,5.0,West,11.5,-,0.00,Snow,Light Snow,260,2014-01-07 01:53:00
9:07 PM,-0.4,-9.4,66,30.15,3.0,WNW,10.4,17.3,0.00,Snow,Light Snow,290,2014-01-07 02:07:00
9:15 PM,-0.4,-9.4,66,30.15,1.8,WNW,11.5,-,0.00,Snow,Light Snow,290,2014-01-07 02:15:00
9:26 PM,-0.4,-7.6,72,30.15,3.0,West,10.4,-,0.00,Snow,Light Snow,280,2014-01-07 02:26:00
9:41 PM,-0.4,-11.2,60,30.16,10.0,West,13.8,23.0,0.00,,Overcast,270,2014-01-07 02:41:00
9:53 PM,-0.9,-11.9,60,30.22,9.0,WNW,12.7,21.9,0.00,,Overcast,300,2014-01-07 02:53:00
10:17 PM,-2.2,-9.4,71,30.16,4.0,West,9.2,20.7,0.00,Snow,Light Snow,270,2014-01-07 03:17:00
10:30 PM,-2.2,-9.4,71,30.16,2.5,West,6.9,-,0.00,Snow,Light Snow,280,2014-01-07 03:30:00
10:49 PM,-2.2,-11.2,66,30.16,3.0,West,20.7,27.6,0.00,Snow,Light Snow,260,2014-01-07 03:49:00
10:53 PM,-2.0,-13.0,60,30.22,4.0,WSW,19.6,27.6,0.00,Snow,Light Snow,250,2014-01-07 03:53:00
11:53 PM,-2.9,-13.0,62,30.23,3.0,WSW,17.3,24.2,0.00,Snow,Light Snow,240,2014-01-07 04:53:00
11:57 PM,-2.2,-11.2,66,30.17,1.8,West,12.7,23.0,0.00,Snow,Light Snow,270,2014-01-07 04:57:00